This is the latest recevied weather packets stored in our database for station/object KF0EZB. If no packets are shown the sender has not sent any weather packets the latest 1 day(s).
| Time | Temp. | Humidity | Pressure | Rain* | Wind** | Luminosity | Snow |
|---|---|---|---|---|---|---|---|
| 1778007314 | 13.33° C | 50% | 1012.4 hPa | 0 mm | 4.02 m/s, 80° | 673 W/m² | - |
| 1778007010 | 13.89° C | 50% | 1012.3 hPa | 0 mm | 3.58 m/s, 86° | 596 W/m² | - |
| 1778006707 | 14.44° C | 49% | 1012.4 hPa | 0 mm | 0.89 m/s, 102° | 594 W/m² | - |
| 1778006404 | 13.89° C | 50% | 1012.4 hPa | 0 mm | 2.24 m/s, 36° | 439 W/m² | - |
| 1778006101 | 13.89° C | 49% | 1012.4 hPa | 0 mm | 2.68 m/s, 59° | 544 W/m² | - |
| 1778005797 | 13.33° C | 51% | 1012.5 hPa | 0 mm | 1.79 m/s, 38° | 592 W/m² | - |
| 1778005494 | 13.89° C | 51% | 1012.3 hPa | 0 mm | 0.89 m/s, 47° | 514 W/m² | - |
| 1778005190 | 13.89° C | 50% | 1012.7 hPa | 0 mm | 2.68 m/s, 49° | 549 W/m² | - |
| 1778004888 | 14.44° C | 48% | 1012.7 hPa | 0 mm | 3.13 m/s, 67° | 684 W/m² | - |
| 1778004585 | 13.33° C | 49% | 1012.8 hPa | 0 mm | 3.58 m/s, 58° | 636 W/m² | - |
| 1778004281 | 13.33° C | 51% | 1013 hPa | 0 mm | 2.24 m/s, 56° | 592 W/m² | - |
| 1778003978 | 13.89° C | 50% | 1013 hPa | 0 mm | 2.68 m/s, 60° | 571 W/m² | - |
| 1778003674 | 13.33° C | 51% | 1012.8 hPa | 0 mm | 4.02 m/s, 58° | 533 W/m² | - |
| 1778003370 | 13.33° C | 52% | 1013.1 hPa | 0 mm | 2.68 m/s, 133° | 496 W/m² | - |
| 1778003068 | 13.33° C | 54% | 1013 hPa | 0 mm | 2.68 m/s, 100° | 454 W/m² | - |
| 1778002764 | 12.78° C | 55% | 1013 hPa | 0 mm | 1.34 m/s, 87° | 473 W/m² | - |
| 1778002460 | 12.22° C | 55% | 1013.2 hPa | 0 mm | 3.13 m/s, 96° | 402 W/m² | - |
| 1778002158 | 12.22° C | 55% | 1013.3 hPa | 0 mm | 1.34 m/s, 70° | 269 W/m² | - |
| 1778001856 | 12.22° C | 55% | 1013.2 hPa | 0 mm | 1.79 m/s, 109° | 281 W/m² | - |
| 1778001555 | 12.22° C | 55% | 1013.1 hPa | 0 mm | 3.13 m/s, 67° | 315 W/m² | - |
| 1778001252 | 12.78° C | 54% | 1012.9 hPa | 0 mm | 2.24 m/s, 148° | 381 W/m² | - |
| 1778000949 | 12.22° C | 54% | 1013.2 hPa | 0 mm | 2.24 m/s, 58° | 405 W/m² | - |
| 1778000645 | 12.22° C | 54% | 1013.1 hPa | 0 mm | 4.92 m/s, 78° | 583 W/m² | - |
| 1778000341 | 12.22° C | 55% | 1012.9 hPa | 0 mm | 2.68 m/s, 40° | 446 W/m² | - |
| 1778000036 | 11.67° C | 55% | 1013.1 hPa | 0 mm | 2.68 m/s, 77° | 351 W/m² | - |
* Rain latest hour (hover to see other rain measurements)
** Current wind speed in m/s (hover to see current wind gust speed)